Location: Newark
(52.2583°N, 7.1190°W)
Time: 08:34:23
(UTC+00:00)

N. Korean satellite - Pass Details

Date: 25 October 2019
Orbit: 456 x 506 km, 97.2° (Epoch: 14 November)

Event Time Altitude Azimuth Distance (km) Brightness Sun altitude
Rises 18:00:22 0° 188° (S) 2,473 10.4 -7.8°
Reaches altitude 10° 18:02:32 10° 199° (SSW) 1,609 9.6 -8.1°
Maximum altitude 18:05:40 32° 264° (W) 830 8.7 -8.6°
Drops below altitude 10° 18:08:52 10° 329° (NNW) 1,643 9.6 -9.0°
Sets 18:11:06 0° 340° (NNW) 2,535 10.4 -9.4°
